This is the latest recevied weather packets stored in our database for station/object N4TLC. If no packets are shown the sender has not sent any weather packets the latest 10 day(s).
| Time | Temp. | Humidity | Pressure | Rain* | Wind** | Luminosity | Snow |
|---|---|---|---|---|---|---|---|
| 1777206833 | 15.56° C | 97% | 1015.7 hPa | 0 mm | - | 29 W/m² | - |
| 1777206528 | 15.56° C | 97% | 1015.5 hPa | 0 mm | - | 31 W/m² | - |
| 1777206223 | 15.56° C | 97% | 1015.5 hPa | 0 mm | - | 34 W/m² | - |
| 1777205918 | 15.56° C | 97% | 1015.4 hPa | 0 mm | - | 25 W/m² | - |
| 1777205615 | 15.56° C | 97% | 1015.5 hPa | 0 mm | - | 27 W/m² | - |
| 1777205313 | 15.56° C | 97% | 1015.4 hPa | 0 mm | - | 32 W/m² | - |
| 1777205008 | 15.56° C | 97% | 1015.3 hPa | 0 mm | - | 38 W/m² | - |
| 1777204703 | 15.56° C | 97% | 1015 hPa | 0 mm | - | 17 W/m² | - |
| 1777204398 | 15.56° C | 97% | 1015 hPa | 0 mm | - | 16 W/m² | - |
| 1777204095 | 15.56° C | 98% | 1014.9 hPa | 0 mm | - | 23 W/m² | - |
| 1777203791 | 15.56° C | 98% | 1014.7 hPa | 0 mm | - | 17 W/m² | - |
| 1777203486 | 15.56° C | 98% | 1014.9 hPa | 0 mm | - | 16 W/m² | - |
| 1777203181 | 15.56° C | 98% | 1014.9 hPa | 0 mm | - | 16 W/m² | - |
| 1777202879 | 15.56° C | 98% | 1014.7 hPa | 0 mm | - | 16 W/m² | - |
| 1777202578 | 15.56° C | 98% | 1014.4 hPa | 0 mm | - | 17 W/m² | - |
| 1777202273 | 15.56° C | 98% | 1014.3 hPa | 0 mm | - | 21 W/m² | - |
| 1777201969 | 15.56° C | 98% | 1014.2 hPa | 0 mm | - | 24 W/m² | - |
| 1777201665 | 15.56° C | 98% | 1014 hPa | 0 mm | - | 19 W/m² | - |
| 1777201362 | 15.56° C | 98% | 1014.1 hPa | 0 mm | - | 10 W/m² | - |
| 1777201056 | 15.56° C | 98% | 1014 hPa | 0 mm | - | 10 W/m² | - |
| 1777200754 | 15.56° C | 98% | 1013.9 hPa | 0 mm | - | 8 W/m² | - |
| 1777200453 | 15.56° C | 98% | 1013.9 hPa | 0 mm | - | 5 W/m² | - |
| 1777200150 | 15.56° C | 98% | 1013.8 hPa | 0 mm | - | 3 W/m² | - |
| 1777199847 | 15.56° C | 98% | 1013.9 hPa | 0 mm | - | 1 W/m² | - |
| 1777199547 | 15.56° C | 98% | 1013.7 hPa | 0 mm | - | 1 W/m² | - |
* Rain latest hour (hover to see other rain measurements)
** Current wind speed in m/s (hover to see current wind gust speed)